Zurück zum Katalog

XIGUANG 1-02

AktivWissenschaftSSO
NORAD 64092·PAYLOAD·🇨🇳 China
Dieser Satellitenname wurde noch nicht durch offizielle Quellen bestätigt.

Gestartet May 21, 2025 von Jiuquan Satellite Launch Center

Loading…

Nächste Überflüge (nächste 24 Stunden)

TLE

AktuellSource: Space-Track

Epoche: Sep 14, 2026, 15:46 UTC

1 64092U 25108F   26257.65763611  .00015319  00000-0  52026-3 0  9991
2 64092  97.4627 335.6771 0011047  51.8318 308.3916 15.30524919 73176

Verfolge XIGUANG 1-02 in Echtzeit mit AllMySat

Download on the App Store